Location: G�ndlingen
(48.0142°N, 7.6396°E)
Time: 02:24:56
(UTC+00:00)

Cosmos 1842 Rocket - Pass Details

Date: 05 July 2020
Orbit: 604 x 635 km, 82.5° (Epoch: 04 August)

Event Time Altitude Azimuth Distance (km) Brightness Sun altitude
Rises 21:39:53 0° 348° (NNW) 2,888 8.6 -14.8°
Reaches altitude 10° 21:42:07 10° 346° (NNW) 1,975 7.4 -15.0°
Maximum altitude 21:46:28 71° 263° (W) 645 3.6 -15.3°
Enters shadow 21:49:01 24° 184° (S) 1,274 4.7 -15.5°
